Regional Weather Roundup
Issued by NWS

Home | Current Version | Previous Version | Text Only | Print | Product List | Glossary On
Versions: 1 2 3 4 5 6 7 8 9 10 11 12 13 14 15 16 17 18 19 20 21 22 23 24 25 26 27 28 29 30 31 32 33 34 35 36 37 38 39 40 41 42 43 44 45 46 47 48 49 50
546
ASUS44 KLIX 021701
RWRLA
LOUISIANA WEATHER ROUNDUP
NATIONAL WEATHER SERVICE NEW ORLEANS LA
1200 PM CDT TUE SEP 02 2014

NOTE: "FAIR" INDICATES FEW OR NO CLOUDS BELOW 12,000 FEET WITH NO
      SIGNIFICANT WEATHER AND/OR OBSTRUCTIONS TO VISIBILITY.
      SKY/WX - SKY CONDITION AND SIGNIFICANT WEATHER.
      TMP - AIR TEMPERATURE.    DP   - DEWPOINT TEMPERATURE.
      RH  - RELATIVE HUMIDITY.  PRES - PRESSURE.
      HX  - HEAT INDEX.         WCI  - WIND CHILL INDEX.

*  THESE STATIONS ARE NOT NWS OR FAA STATIONS AND ARE NOT UNDER
   NWS QUALITY CONTROL.

LAZ040-048-061>063-065-066-069-021800-
SOUTHEAST LOUISIANA

CITY           SKY/WX    TMP DP  RH WIND       PRES   REMARKS
N.O. AUDUBON     N/A     94  78  60 MISG        N/A  HX 110
N.O. INTL ARPT PTSUNNY   89  75  63 S7        30.07S HX  99
N.O. LAKEFRONT PTSUNNY   87  76  69 W3        30.08S HX  97
N.O. DOWNTOWN* FAIR      91  72  52 S7        30.07S HX  98
SLIDELL        PTSUNNY   87  74  64 VRB3      30.07S HX  95
BATON ROUGE    PTSUNNY   90  73  57 SE5       30.06F HX  98
BOOTHVILLE     PTSUNNY   88  76  67 CALM      30.08F HX  99
BELLE CHASSE   PTSUNNY   90  73  57 MISG      30.06F HX  98
BOGALUSA*      FAIR      89  73  58 S5        30.10S THUNDER HX  97
GALLIANO*      NOT AVBL
NEW ROADS*     FAIR      88  77  69 S8        30.06F HX 100
GONZALES*      FAIR      89  75  63 SW3       30.05F HX  99
HAMMOND*       NOT AVBL
HOUMA*         MOSUNNY   90  72  55 S12       30.07S HX  96
PORT FOURCHON* MOSUNNY   88  77  70 E8        30.09S HX 100

$$

LAZ041-044-053-054-021800-
SOUTHWEST LOUISIANA

CITY           SKY/WX    TMP DP  RH WIND       PRES   REMARKS
LAKE CHARLES   MOSUNNY   88  75  65 S10       30.04R HX  97
LAFAYETTE      MOSUNNY   89  75  63 S16G22    30.05S HX  99
PATTERSON      PTSUNNY   90  75  62 S12       30.09S HX 100
SALT POINT       N/A     91  79  67 VRB7      30.05F HX 107
NEW IBERIA     PTSUNNY   88  77  69 SW13      30.06S HX 100
CHENAULT AIRPK MOSUNNY   88  72  58 S9        30.05R

$$

LAZ027-028-021800-
CENTRAL LOUISIANA

CITY           SKY/WX    TMP DP  RH WIND       PRES   REMARKS
FORT POLK      PTSUNNY   87  76  69 S8        30.04S HX  97
ALEXANDRIA INT CLOUDY    90  74  59 S7        30.03S HX  99
ALEXANDRIA     MOSUNNY   88  76  67 VRB3      30.05S HX  99

$$

LAZ001-002-021800-
NORTHWEST LOUISIANA

CITY           SKY/WX    TMP DP  RH WIND       PRES   REMARKS
SHREVEPORT     LGT RAIN  84  72  67 W3        30.04S
BARKSDALE AFB  LGT RAIN  88  73  62 SE9       30.05S HX  96
DTN SHREVEPORT PTSUNNY   88  73  61 W8        30.04S HX  95

$$

LAZ014-016-021800-
NORTHEAST LOUISIANA

CITY           SKY/WX    TMP DP  RH WIND       PRES   REMARKS
MONROE         PTSUNNY   85  74  69 W6        30.06F
TALLULAH       SUNNY     88  74  63 VRB6      30.06F HX  96

$$




USA.gov is the U.S. government's official web portal to all federal, state and local government web resources and services.